CZ-6A DEB, 60873

Orbit data source: Space-Track

CZ-6A DEB, 60873 is space debris in LEO originally from a launch on Tue, 06 Aug 2024 UTC launched from the Taiyaun Space Center, China (TSC). Debris objects in space refer to the collection of defunct objects orbiting the Earth. Examples of debris include non-operational satellites, rocket bodies, and fragments generated from explosions, collisions, or faulty payload assembly.

Loading next visibility...
Identifier
60873, 2024-140KC
Orbit
LEO
Country
Flag of CNCN / PRC
Related business
Manufacturer
SAST
Mission
Spacecraft
Bus & Motor
Unknown
Mass
Unknown
Launch date (UTC)
2024-08-06 (1 year ago)
Launch vehicle
Unknown
Launch site
Taiyaun Space Center, China (TSC)
Object type
Payload
Rocket body
Debris
Shape & HBR
Unknown shape, 0.1 m
Radar Cross Section
Small (<0.1 m²)

Expand to show TLE details & history
Last TLE update: 7 hours ago

TLE from 7 hours ago
0 CZ-6A DEB
1 60873U 24140KC  25351.30455208  .00001583  00000-0  79252-3 0  9993
2 60873  89.1182 302.5063 0075144  66.4303 294.4753 14.14780411 69120
Epoch: 2025-12-17T07:18Z
TLE epoch observation values (Epoch: 2025-12-17T07:18:33.299Z)
Latitude
-0.00009°
Longitude
106.69122°
Altitude
823.959 km
Speed
7.452 km/s
True Right ascension
20h 10m 01s
True Declination
0° 00' 00"
Sunlit
Object was in daylight at epoch
Visualization orbit readout
Latitude
Unknown
Longitude
Unknown
Altitude
Unknown
Speed
Unknown
Apparent Right ascension
Unknown
Apparent Declination
Unknown
Sunlit
N/A
Visualization observer readout
Local Sidereal Time
12:58:09
Azimuth
Unknown
Elevation
Unknown
Doppler factor
Unknown
Orbital elements
Apogee altitude
894.257 km
Perigee altitude
785.777 km
Semi-major axis
7,218.154 km
Eccentricity
0.00751
Inclination
89.1182°
RAAN
302.5063°
Arg. of periapsis
66.4303°
True anomaly
293.68855°
Mean anomaly
294.4753°
Eccentric anomaly
294.08223°
Mean motion
3.53919 °/min
Orbital period
101.72 mins
BSTAR
0.00079252
Loading maneuver chart data...
Computing Atmospheric mass density...
Loading historical data...
Loading historical data...
Loading historical data...
Loading historical data...
Loading historical data...
Loading historical data...
Loading historical data...

Documentation

Showing up to 5 results
|